Flag Weather past 2 weeks in Emmen, Lucerne, Switzerland

Now
45 °F

Quite cool.


Feels Like: 45 °F
Forecast: 41 / 58 °F
Wind: 2 mph from Southwest

Location: Giswil

Current Time: Nov 27, 2014 at 8:13:54 AM

Latest Report: Nov 27, 2014 at 7:00 AM


Visibility: N/A

Pressure: 29.83 "Hg

Humidity: 100%

Dew point: 45 °F

Location of EmmenLocation

Historic Weather in Emmen — Graph

°F

Emmen temperature yesterday

Maximum temperature yesterday: 49 °F (at 3:00 PM)
Minimum temperature yesterday: 43 °F (at 6:00 PM)
Average temperature yesterday: 47 °F

Past Weeks' High & Low Weather Summary

 TemperatureHumidityPressure
High57 °F (Nov 24, 3:00 PM)100% (Nov 12, 7:00 AM)30.33 "Hg (Nov 12, 7:00 AM)
Low30 °F (Nov 20, 2:00 AM)69% (Nov 19, 2:00 PM)29.59 "Hg (Nov 15, 6:00 PM)
Average43 °F98%30.00 "Hg
* Reported Nov 12 7:00 AM — Nov 27 7:00 AM, Emmen, Weather by CustomWeather, © 2014

Note: Actual official high and low records may vary slightly from our data, if they occured in-between our weather recording intervals... More about our weather records

Advertising

Emmen weather history for previous 24 hours

 ConditionsComfort  
Time TempWeatherWind HumidityBarometerVisibility
7:00 AM
Nov 27
45 °FQuite cool.2 mph100%29.83 "HgN/A
6:00 AM45 °FCool.2 mph100%29.84 "HgN/A
5:00 AM46 °FCool.1 mph100%29.84 "HgN/A
3:00 AM46 °FCool.2 mph100%29.87 "HgN/A
2:00 AM46 °FCool.2 mph100%29.88 "HgN/A
1:00 AM47 °FCool.1 mph100%29.90 "HgN/A
12:00 AM47 °FCool.No wind100%29.90 "HgN/A
11:00 PM
Nov 26
47 °FCool.No wind100%29.92 "HgN/A
10:00 PM47 °FCool.1 mph100%29.93 "HgN/A
9:00 PM47 °FCool.No wind100%29.93 "HgN/A
8:00 PM47 °FCool.1 mph100%29.93 "HgN/A
7:00 PM46 °FCool.1 mph100%29.94 "HgN/A
6:00 PM43 °FQuite cool.1 mph100%29.96 "HgN/A
5:00 PM47 °FCool.1 mph100%29.94 "HgN/A
4:00 PM49 °FCool.No wind99%29.94 "HgN/A
3:00 PM49 °FCool.1 mph98%29.95 "HgN/A
2:00 PM49 °FCool.2 mph100%29.96 "HgN/A
1:00 PM49 °FCool.2 mph100%29.97 "HgN/A
12:00 PM47 °FCool.1 mph100%30.00 "HgN/A
11:00 AM47 °FCool.No wind100%30.02 "HgN/A
10:00 AM47 °FCool.No wind100%30.01 "HgN/A
9:00 AM46 °FCool.No wind100%30.02 "HgN/A
8:00 AM46 °FCool.1 mph100%30.02 "HgN/A
Weather by CustomWeather, © 2014

See weather overviewHow to use our weather pages